GRARBER Weather Reports


time (UTC)temp
F
wind
direction
speed
knots
gust
knots
rain 1hr
in
rain 24hr
in
rain mn
in
humidity
%
barometer
mb
20260906031654 43 300 11.3 0.0 0.00 0.00 0.00 99
20260906021654 45 310 13.0 19.1 0.00 0.00 0.00 87
20260906011953 45 310 13.9 20.0 0.00 0.00 0.00 87
20260906001654 46 310 13.0 19.1 0.00 0.00 0.00 75
20260905231655 46 310 13.9 0.0 0.00 0.00 0.00 75
20260905222056 46 300 13.0 20.0 0.00 0.00 0.00 81
20260905211653 48 300 13.0 0.0 0.00 0.00 0.00 76
20260905201654 50 300 13.0 21.7 0.00 0.00 0.00 76
20260905191955 52 280 18.2 26.1 0.00 0.00 0.00 71
20260905181653 52 270 20.9 31.3 0.00 0.00 0.00 71
20260905171654 54 260 20.9 28.7 0.00 0.00 0.00 66
20260905162057 54 260 21.7 31.3 0.00 0.00 0.00 71
20260905152121 54 250 21.7 33.9 0.00 0.00 0.00 87
20260905142227 50 240 20.0 31.3 0.00 0.00 0.00 99
20260905131854 50 250 19.1 28.7 0.00 0.00 0.00 99
20260905121623 50 240 20.0 30.4 0.00 0.00 0.00 99
20260905111656 48 240 17.4 24.3 0.00 0.00 0.00 99
20260905102114 48 250 14.8 20.9 0.00 0.00 0.00 99
20260905091623 46 240 14.8 0.0 0.00 0.00 0.00 99
20260905081656 46 260 15.6 0.0 0.00 0.00 0.00 99
20260905071957 46 280 15.6 24.3 0.00 0.00 0.00 93
20260905061656 46 300 15.6 22.6 0.00 0.00 0.00 93
20260905051656 45 300 15.6 22.6 0.00 0.00 0.00 99
20260905042058 43 330 20.9 0.0 0.00 0.00 0.00 99